Regional Weather Roundup
Issued by NWS

Home | Current Version | Previous Version | Text Only | Print | Product List | Glossary On
Versions: 1 2 3 4 5 6 7 8 9 10 11 12 13 14 15 16 17 18 19 20 21 22 23 24 25 26 27 28 29 30 31 32 33 34 35 36 37 38 39 40 41 42 43 44 45 46 47 48 49 50
000
ASUS44 KFWD 261603
RWRTX
NORTH TEXAS HOURLY WEATHER ROUNDUP
NATIONAL WEATHER SERVICE FORT WORTH TX
1100 AM CDT SAT JUL 26 2014

NOTE: "FAIR" INDICATES FEW OR NO CLOUDS BELOW 12,000 FEET WITH NO
SIGNIFICANT WEATHER AND/OR OBSTRUCTIONS TO VISIBILITY.

TXZ118-119-261700-
DALLAS/FORT WORTH METROPLEX

CITY           SKY/WX    TMP DP  RH WIND       PRES   REMARKS
DFW AIRPORT    MOSUNNY   92  70  48 S13       30.00S HX  97
DALLAS LOVE    MOSUNNY   90  69  50 SW9       30.01S HX  94
FTW MEACHAM    SUNNY     92  71  50 S9        30.00S HX  98
DAL-EXECUTIVE  SUNNY     92  69  47 S8        30.01S HX  97
FTW-ALLIANCE   MOSUNNY   90  71  53 S9        30.00S HX  96
FTW-NAS-JRB    SUNNY     95  68  41 S13       30.04S HX  99
FTW-SPINKS     SUNNY     91  68  46 S8        30.03S HX  95
ARLINGTON      SUNNY     92  67  43 S7        30.01S HX  95
GRAND PRAIRIE  SUNNY     90  66  45 S9        30.02F HX  92
ADDISON        SUNNY     90  68  48 S9        30.02S HX  93
MESQUITE       SUNNY     90  70  51 SW10      30.02S HX  95
LANCASTER      SUNNY     91  67  45 SW12      30.02S HX  94
$$

TXZ091>094-102>105-117-120-121-131>134-261700-
NORTH CENTRAL TEXAS

CITY           SKY/WX    TMP DP  RH WIND       PRES   REMARKS
SHRMAN/DENISON SUNNY     91  69  49 SW12G22   30.02S HX  95
GAINESVILLE    SUNNY     88  71  55 S12       30.03R HX  94
BOWIE          SUNNY     88  72  57 S10       30.01S HX  95
BRIDGEPORT     SUNNY     89  66  47 SW9       30.03R HX  91
DECATUR        SUNNY     88  68  51 SW9       30.02S HX  92
DENTON         SUNNY     89  71  55 SW14      30.01R HX  95
MCKINNEY       SUNNY     91  71  51 S9        30.01S HX  97
GREENVILLE     SUNNY     90  70  51 S7        30.02S HX  95
ROCKWALL       SUNNY     88  72  60 S12       30.01S HX  95
TERRELL        SUNNY     90  71  53 SW9       30.02F HX  96
WAXAHACHIE     SUNNY     90  66  43 S12       30.03S HX  92
CLEBURNE       SUNNY     88  73  62 S9        30.04S HX  96
GRANBURY       SUNNY     92  68  44 S7        30.02F HX  96
$$

TXZ083>090-098>101-113>116-127>130-139>142-154-155-261700-
WESTERN NORTH TEXAS

CITY           SKY/WX    TMP DP  RH WIND       PRES   REMARKS
WICHITA FALLS  SUNNY     90  68  48 SW14      29.98S HX  94
WF-KICKAPOO    SUNNY     91  64  41 SW13      30.00S HX  92
VERNON         SUNNY     92  63  38 SW14      29.99S HX  93
ABILENE        SUNNY     87  68  52 S15       30.04S HX  90
ABILENE-DYESS  SUNNY     89  68  49 S14       30.02F HX  93
BRECKENRIDGE   SUNNY     92  65  41 SW17      30.02S HX  94
GRAHAM         SUNNY     91  66  43 S9G16     30.00S HX  94
MINERAL WELLS  SUNNY     90  68  48 MISG      30.00F HX  94
STEPHENVILLE   SUNNY     89  66  46 SW10      30.06F HX  91
COMANCHE       SUNNY     89  67  47 SW13      30.04F HX  91
BROWNWOOD      SUNNY     86  68  54 S12       30.05S HAZE
COLEMAN        SUNNY     86  66  51 SW8       30.06S
BRADY          SUNNY     88  68  51 S9        30.06S HX  91
$$

TXZ143>147-156>162-174-175-261700-
CENTRAL TEXAS

CITY           SKY/WX    TMP DP  RH WIND       PRES   REMARKS
WACO           SUNNY     89  71  55 S13       30.03S HX  95
WACO-MCGREGOR  SUNNY     90  70  51 S15       30.04S HX  95
HILLSBORO      SUNNY     90  69  50 S9        30.03S HX  94
CORSICANA      SUNNY     89  71  55 S12       30.04F HX  95
MEXIA          SUNNY     87  73  62 SW12      30.04S HX  93
HEARNE         SUNNY    N/A N/A N/A S10       30.05S
CAMERON        SUNNY     89  73  59 S15       30.04F HX  96
TEMPLE         SUNNY     88  70  55 S14       30.04S HX  92
KILLEEN        MOSUNNY   88  70  55 S15       30.04F HX  92
KILLEEN-SKYLRK SUNNY     90  68  48 S14       30.04S HX  93
FORT HOOD      SUNNY     90  69  50 S13       30.04F HX  94
GATESVILLE     SUNNY     88  70  55 S8        30.06S HX  92
HAMILTON       SUNNY     88  67  49 SW10G22   30.06R HX  91
LAMPASAS       SUNNY     88  73  59 S9        30.04S HX  95
$$

TXZ095>097-106>112-122>126-135>138-148>153-164>167-261700-
EAST TEXAS

CITY           SKY/WX    TMP DP  RH WIND       PRES   REMARKS
PARIS          SUNNY     88  72  58 SW10      30.03R HX  94
SULPHUR SPRNGS SUNNY     88  71  58 SW12      30.04S HX  94
CLARKSVILLE    SUNNY     89  73  59 S7        30.03R HX  97
MOUNT PLEASANT SUNNY     88  71  56 SW9       30.04F HX  93
GILMER         SUNNY     88  73  62 SW6       30.06S HX  96
MINEOLA        SUNNY     88  73  62 SW5       30.04S HX  96
TYLER          SUNNY     87  72  60 S10       30.05S HX  93
LONGVIEW       SUNNY     88  72  58 SW7       30.04F HX  94
MARSHALL       SUNNY     89  74  61 SW7       30.07S HX  97
ATHENS         SUNNY     84  73  70 SW6       30.04S HX  91
JACKSONVILLE   SUNNY     86  71  60 SW6       30.09S HX  92
HENDERSON      SUNNY     86  71  60 W8        30.07S HX  91
NACOGDOCHES    SUNNY     84  73  70 W5        30.07R HX  91
LUFKIN         SUNNY     90  73  57 SW9       30.06S HX  98
$$

SUPPLEMENTAL OBSERVATIONS (CENTRAL)

CITY           SKY/WX    TMP DP  RH WIND       PRES   REMARKS
$$

SUPPLEMENTAL OBSERVATIONS (WEST)

CITY           SKY/WX    TMP DP  RH WIND       PRES   REMARKS
$$

SUPPLEMENTAL OBSERVATIONS (EAST)

CITY           SKY/WX    TMP DP  RH WIND       PRES   REMARKS
$$

SUPPLEMENTAL OBSERVATIONS ARE A COLLECTION OF AUTOMATED INSTRUMENTS
THAT ARE MAINTAINED BY A VARIETY OF FEDERAL AND STATE AGENCIES.
CERTAIN ELEMENTS...SUCH AS HUMIDITY VALUES AND SUSTAINED WIND
SPEEDS...MAY BE APPROXIMATED.




USA.gov is the U.S. government's official web portal to all federal, state and local government web resources and services.